Regional Weather Roundup
Issued by NWS

Home | Current Version | Previous Version | Graphics & Text | Print | Product List | Glossary On
Versions: 1 2 3 4 5 6 7 8 9 10 11 12 13 14 15 16 17 18 19 20 21 22 23 24 25 26 27 28 29 30 31 32 33 34 35 36 37 38 39 40 41 42 43 44 45 46 47 48 49 50
000
ASUS45 KABQ 291801
RWRNM
NEW MEXICO REGIONAL WEATHER ROUNDUP
NATIONAL WEATHER SERVICE ALBUQUERQUE NM
1200 PM MDT MON MAY 29 2017

NOTE: "FAIR" MEANS FEW OR NO CLOUDS BELOW 12,000 FEET AGL WITH NO
       SIGNIFICANT WEATHER OR OBSTRUCTIONS TO VISION.

      THIS PRODUCT IS RELEASED AS TWO VERSIONS.  ONE VERSION NEAR
      THE TOP OF THE HOUR CONTAINING PRELIMINARY DATA FROM ALBUQUERQUE
      AND OTHER STATIONS.  A FINAL VERSION WITH ADDITIONAL DATA IS
      ISSUED ABOUT 10 MINUTES AFTER THE HOUR.

NMZ501-503-504-510>518-291900-
NORTHWEST PLATEAU/NORTHCENTRAL MOUNTAINS

CITY           SKY/WX    TMP DP  RH WIND       PRES   REMARKS
FARMINGTON     FAIR      75  17  11 SE5       30.17F
6HR MIN TEMP:  41; 6HR MAX TEMP:  76;

LOS ALAMOS     FAIR      66  33  29 S8G23     30.28F
SANTA FE       FAIR      75  38  26 SW14G20   30.23F
6HR MIN TEMP:  56; 6HR MAX TEMP:  75;

TAOS           FAIR      66  34  30 W9G23     30.29F
ANGEL FIRE     FAIR      60  33  36 W16       30.35S

$$
NMZ402-403-502-505>509-291900-
WESTCENTRAL MOUNTAINS/SOUTHWEST MOUNTAINS

CITY           SKY/WX    TMP DP  RH WIND       PRES   REMARKS
GALLUP         FAIR      75  23  14 N7        30.21F
6HR MIN TEMP:  37; 6HR MAX TEMP:  76;

GRANTS         FAIR      76  32  20 SE12      30.24F
SILVER CITY    FAIR      76  40  27 SE13G22   30.19F

$$
NMZ407-409-411-412-291900-
SOUTHERN DESERTS

CITY           SKY/WX    TMP DP  RH WIND       PRES   REMARKS
DEMING         FAIR      82  43  25 SE14G24   30.12F
6HR MIN TEMP:  60; 6HR MAX TEMP:  83;

LAS CRUCES     FAIR      82  41  23 SE12G18   30.16S
ALAMOGORDO     FAIR      79  41  25 W3        30.15F
T OR C         FAIR      81  41  24 S10       30.15F
6HR MIN TEMP:  57; 6HR MAX TEMP:  81;


$$
NMZ519>523-291900-
CENTRAL VALLEYS/CENTRAL HIGHLANDS

CITY           SKY/WX    TMP DP  RH WIND       PRES   REMARKS
ALBUQUERQUE    FAIR      75  38  26 S10       30.20F
6HR MIN TEMP:  58; 6HR MAX TEMP:  75;

DOUBLE EAGLE     N/A     73  39  29 S12G22    30.23F
MORIARTY ARPT  FAIR      72  38  29 S8        30.26F
6HR MIN TEMP:  39; 6HR MAX TEMP:  74;

CLINES CORNERS FAIR      69  38  32 S9        30.30F
6HR MIN TEMP:  46; 6HR MAX TEMP:  69;

BELEN          FAIR      77  36  23 S10G18    30.18F
6HR MIN TEMP:  55; 6HR MAX TEMP:  77;

SOCORRO        FAIR      81  38  22 S17       30.17F
6HR MIN TEMP:  54; 6HR MAX TEMP:  81;


$$
NMZ524>526-539-540-291900-
SOUTHCENTRAL MOUNTAINS

CITY           SKY/WX    TMP DP  RH WIND       PRES   REMARKS
RUIDOSO        NOT AVBL

$$
NMZ527>531-291900-
NORTHEAST HIGHLANDS/NORTHEAST PLAINS

CITY           SKY/WX    TMP DP  RH WIND       PRES   REMARKS
LAS VEGAS      FAIR      67  40  37 S13G24    30.29F
6HR MIN TEMP:  41; 6HR MAX TEMP:  68;

RATON          FAIR      67  39  35 S15G23    30.26F
6HR MIN TEMP:  42; 6HR MAX TEMP:  68;

CLAYTON        FAIR      71  37  28 S14G23    30.23F
6HR MIN TEMP:  52; 6HR MAX TEMP:  72;


$$
NMZ532>537-291900-
EASTCENTRAL PLAINS

CITY           SKY/WX    TMP DP  RH WIND       PRES   REMARKS
SANTA ROSA     FAIR      75  40  28 S10G28    30.20F
TUCUMCARI      FAIR      79  39  23 S7        30.18F
6HR MIN TEMP:  50; 6HR MAX TEMP:  79;

CANNON AFB     NOT AVBL
CLOVIS AIRPORT FAIR      77  39  25 SE12      30.22F

$$
NMZ028-029-538-291900-
SOUTHEAST PLAINS

CITY           SKY/WX    TMP DP  RH WIND       PRES   REMARKS
ROSWELL        FAIR      80  46  30 SE13G18   30.18F
6HR MIN TEMP:  59; 6HR MAX TEMP:  80;

ARTESIA        FAIR      79  48  34 SE14      30.17F
CARLSBAD       FAIR      80  49  33 SE17G25   30.15F
6HR MIN TEMP:  59; 6HR MAX TEMP:  81;

HOBBS          SUNNY     79  41  25 E14G21    30.20F


$$



USA.gov is the U.S. government's official web portal to all federal, state and local government web resources and services.